Mumbai, India

9:44 PM IST on October 20, 2017 (GMT +0530)
Chhatrapati Shivaji International

Weather History for VABB - October, 2012

Change the Weather History Date:

Tuesday, October 9, 2012

  Actual Average Record
Temperature  
Mean Temperature 82 °F -  
Max Temperature 88 °F 89 °F 98 °F (1997)
Min Temperature 75 °F 75 °F 74 °F (2016)
Cooling Degree Days 16    
Growing Degree Days 32 (Base 50)    
Moisture  
Dew Point 77 °F    
Average Humidity 83    
Maximum Humidity 94    
Minimum Humidity 65    
Precipitation  
Precipitation 0.00 in - - ()
Sea Level Pressure  
Sea Level Pressure 29.79 in    
Wind  
Wind Speed 4 mph ()    
Max Wind Speed 10 mph    
Max Gust Speed -    
Visibility 1.9 miles    
Events      
Averages and records for this station are not official NWS values.
T = Trace of Precipitation, MM = Missing Value Source: Averaged Metar Reports

Daily Weather History Graph

Daily Weather History Graph

Search for Another Location

Airport or City:

Trip Planner

Search our weather history database for the weather conditions in past years. The results will help you decide how hot, cold, wet, or windy it might be!

Date:

Astronomy

Oct. 09, 2012 Rise Set
Actual Time 6:31 AM IST 6:20 PM IST
Civil Twilight 6:09 AM IST 6:42 PM IST
Nautical Twilight 5:43 AM IST 7:07 PM IST
Astronomical Twilight 5:18 AM IST 7:33 PM IST
Moon 12:31 AM IST (10/9) 1:44 PM IST (10/9)
Length of Visible Light 12h 32m
Length of Day
11h 49m
Last Quarter, 41% of the Moon is Illuminated
Oct 9
Last Quarter
Oct 15
New
Oct 22
First Quarter
Oct 30
Full
Nov 7
Last Quarter

Hourly Weather History & Observations

Time (IST) Temp. Heat Index Dew Point Humidity Pressure Visibility Wind Dir Wind Speed Gust Speed Precip Events Conditions
12:10 AM 78.8 °F - 73.4 °F 83% 29.80 in 1.6 mi Calm Calm - N/A   Haze
12:40 AM 78.8 °F - 73.4 °F 83% 29.80 in 1.6 mi East 6.9 mph - N/A   Haze
1:10 AM 78.8 °F - 73.4 °F 83% 29.77 in 1.6 mi East 6.9 mph - N/A   Haze
1:40 AM 78.8 °F - 75.2 °F 89% 29.77 in 1.6 mi East 5.8 mph - N/A   Haze
2:10 AM 78.8 °F - 75.2 °F 89% 29.77 in 1.6 mi East 4.6 mph - N/A   Haze
2:30 AM 77 °F - 75 °F 92% 29.78 in 1 mi Calm Calm - -   Haze
2:40 AM 78.8 °F - 77.0 °F 94% 29.77 in 1.6 mi East 6.9 mph - N/A   Haze
3:10 AM 78.8 °F - 77.0 °F 94% 29.77 in 1.6 mi ESE 5.8 mph - N/A   Haze
3:40 AM 78.8 °F - 75.2 °F 89% 29.77 in 1.4 mi East 4.6 mph - N/A   Haze
4:10 AM 78.8 °F - 77.0 °F 94% 29.77 in 1.4 mi Calm Calm - N/A   Haze
4:40 AM 78.8 °F - 77.0 °F 94% 29.77 in 1.4 mi ESE 4.6 mph - N/A   Haze
5:10 AM 78.8 °F - 77.0 °F 94% 29.77 in 1.4 mi Calm Calm - N/A   Haze
5:30 AM 77 °F - 75 °F 91% 29.79 in 1 mi Calm Calm - -   Haze
5:40 AM 78.8 °F - 77.0 °F 94% 29.77 in 1.4 mi Calm Calm - N/A   Haze
6:10 AM 78.8 °F - 77.0 °F 94% 29.80 in 1.4 mi Calm Calm - N/A   Haze
6:40 AM 78.8 °F - 77.0 °F 94% 29.80 in 1.4 mi Calm Calm - N/A   Haze
7:10 AM 80.6 °F 87.1 °F 77.0 °F 89% 29.80 in 1.4 mi Calm Calm - N/A   Haze
7:40 AM 80.6 °F 87.1 °F 77.0 °F 89% 29.83 in 1.4 mi Calm Calm - N/A   Haze
8:10 AM 82.4 °F 90.9 °F 77.0 °F 84% 29.83 in 1.4 mi Calm Calm - N/A   Haze
8:30 AM 82 °F - 77 °F 81% 29.84 in 1 mi Calm Calm - -   Haze
8:40 AM 82.4 °F 90.9 °F 77.0 °F 84% 29.86 in 1.4 mi Calm Calm - N/A   Haze
9:10 AM 84.2 °F 94.1 °F 77.0 °F 79% 29.86 in 1.4 mi SSW 4.6 mph - N/A   Haze
9:40 AM 84.2 °F 96.1 °F 78.8 °F 84% 29.86 in 1.2 mi Calm Calm - N/A   Haze
10:10 AM 86.0 °F 99.3 °F 78.8 °F 79% 29.86 in 1.4 mi South 4.6 mph - N/A   Haze
10:40 AM 86.0 °F 96.9 °F 77.0 °F 74% 29.86 in 1.6 mi Calm Calm - N/A   Smoke
11:10 AM 86.0 °F 99.3 °F 78.8 °F 79% 29.83 in 1.6 mi West 6.9 mph - N/A   Smoke
12:10 PM 86.0 °F 96.9 °F 77.0 °F 74% 29.80 in 1.9 mi West 8.1 mph - N/A   Smoke
12:40 PM 86.0 °F 96.9 °F 77.0 °F 74% 29.80 in 1.9 mi West 8.1 mph - N/A   Smoke
1:10 PM 86.0 °F 96.9 °F 77.0 °F 74% 29.77 in 2.5 mi West 10.4 mph - N/A   Smoke
1:40 PM 86.0 °F 96.9 °F 77.0 °F 74% 29.77 in 2.5 mi West 8.1 mph - N/A   Smoke
2:10 PM 87.8 °F 99.7 °F 77.0 °F 70% 29.77 in 2.5 mi WNW 9.2 mph - N/A   Smoke
2:30 PM 88 °F - 78 °F 65% 29.75 in 2 mi West 4.6 mph - -   Scattered Clouds
2:40 PM 87.8 °F 99.7 °F 77.0 °F 70% 29.74 in 2.5 mi WNW 9.2 mph - N/A   Smoke
3:40 PM 86.0 °F 96.9 °F 77.0 °F 74% 29.74 in 3.1 mi West 9.2 mph - N/A   Smoke
4:10 PM 86.0 °F 99.3 °F 78.8 °F 79% 29.71 in 3.1 mi WNW 9.2 mph - N/A   Haze
4:40 PM 86.0 °F 99.3 °F 78.8 °F 79% 29.71 in 3.1 mi West 9.2 mph - N/A   Haze
5:10 PM 86.0 °F 99.3 °F 78.8 °F 79% 29.71 in 3.1 mi West 9.2 mph - N/A   Haze
5:30 PM 86 °F - 78 °F 73% 29.74 in 1 mi West 4.6 mph - -   Haze
5:40 PM 84.2 °F 96.1 °F 78.8 °F 84% 29.74 in 3.1 mi West 6.9 mph - N/A   Haze
6:10 PM 84.2 °F 96.1 °F 78.8 °F 84% 29.74 in 2.5 mi WNW 6.9 mph - N/A   Haze
6:40 PM 84.2 °F 96.1 °F 78.8 °F 84% 29.77 in 2.5 mi West 6.9 mph - N/A   Haze
7:10 PM 84.2 °F 96.1 °F 78.8 °F 84% 29.77 in 2.5 mi West 6.9 mph - N/A   Haze
7:40 PM 84.2 °F 96.1 °F 78.8 °F 84% 29.77 in 2.5 mi WSW 8.1 mph - N/A   Haze
8:10 PM 84.2 °F 96.1 °F 78.8 °F 84% 29.80 in 2.5 mi WSW 6.9 mph - N/A   Haze
8:30 PM 84 °F - 78 °F 76% 29.79 in 1 mi Calm Calm - -   Haze
8:40 PM 84.2 °F 96.1 °F 78.8 °F 84% 29.80 in 2.5 mi WNW 4.6 mph - N/A   Haze
9:10 PM 84.2 °F 96.1 °F 78.8 °F 84% 29.80 in 2.2 mi West 3.5 mph - N/A   Haze
9:40 PM 84.2 °F 96.1 °F 78.8 °F 84% 29.83 in 2.2 mi Calm Calm - N/A   Haze
10:10 PM 84.2 °F 96.1 °F 78.8 °F 84% 29.83 in 2.2 mi SW 4.6 mph - N/A   Haze
10:40 PM 84.2 °F 96.1 °F 78.8 °F 84% 29.80 in 2.5 mi WSW 8.1 mph - N/A   Haze
11:10 PM 84.2 °F 96.1 °F 78.8 °F 84% 29.80 in 2.5 mi WSW 5.8 mph - N/A   Haze
11:30 PM 82 °F - 79 °F 87% 29.81 in 1 mi Calm Calm - -   Haze
11:40 PM 84.2 °F 96.1 °F 78.8 °F 84% 29.80 in 2.5 mi NW 4.6 mph - N/A   Haze